WB7CYS Weather Reports


Display with metric or nautical units.
time (UTC)temp
F
wind
direction
speed
MPH
gust
MPH
rain 1hr
in
rain 24hr
in
rain mn
in
humidity
%
barometer
mb
20260904014520 61 193 3.0 10.0 0.00 0.20 0.02 52 1007.5
20260904013020 61 101 6.0 14.0 0.00 0.20 0.02 50 1007.1
20260904011518 61 72 10.0 14.0 0.00 0.20 0.02 58 1006.9
20260904010017 61 66 7.0 9.0 0.00 0.20 0.02 58 1007.1
20260904004516 61 89 3.0 8.0 0.00 0.20 0.02 62 1006.9
20260904003015 61 58 4.0 7.0 0.00 0.20 0.02 58 1007.0
20260904001516 62 56 1.0 4.0 0.00 0.20 0.02 56 1007.0
20260904000014 63 81 0.0 4.0 0.00 0.20 0.02 52 1007.2
20260903234523 63 101 0.0 1.0 0.00 0.20 0.02 50 1007.2
20260903233012 63 6 2.0 3.0 0.00 0.20 0.02 49 1007.4
20260903231512 63 321 4.0 5.0 0.00 0.20 0.02 49 1007.4
20260903230011 63 319 5.0 9.0 0.00 0.20 0.02 49 1007.3
20260903224522 63 321 6.0 9.0 0.00 0.20 0.02 49 1007.6
20260903223015 63 332 6.0 9.0 0.00 0.20 0.02 49 1007.8
20260903221509 63 280 6.0 8.0 0.00 0.20 0.02 48 1007.5
20260903220009 63 306 8.0 11.0 0.00 0.20 0.02 49 1007.7
20260903214508 63 13 3.0 6.0 0.00 0.20 0.02 49 1007.5
20260903213008 64 255 3.0 5.0 0.00 0.20 0.02 48 1008.2
20260903211506 64 323 2.0 5.0 0.00 0.20 0.02 48 1008.3
20260903210005 64 346 1.0 4.0 0.00 0.20 0.02 49 1008.1
20260903204503 63 231 1.0 5.0 0.00 0.20 0.02 50 1008.5
20260903203006 63 39 0.0 5.0 0.00 0.20 0.02 50 1008.6
20260903201601 62 281 0.0 6.0 0.00 0.20 0.02 51 1008.7
20260903200058 62 72 0.0 4.0 0.00 0.20 0.02 51 1009.0
20260903194556 62 311 3.0 6.0 0.00 0.20 0.02 51 1009.0
20260903193054 61 311 1.0 6.0 0.00 0.20 0.02 52 1008.8
20260903191557 61 283 3.0 6.0 0.00 0.20 0.02 52 1009.0
20260903190051 60 314 5.0 8.0 0.00 0.20 0.02 51 1009.0
20260903184556 60 301 3.0 7.0 0.00 0.20 0.02 50 1009.3
20260903183056 60 328 4.0 7.0 0.00 0.20 0.02 50 1009.2
20260903181549 60 274 4.0 6.0 0.00 0.20 0.02 52 1009.4
20260903180051 59 313 4.0 9.0 0.00 0.20 0.02 53 1009.4
20260903174546 59 308 6.0 9.0 0.00 0.20 0.02 55 1009.5
20260903173045 59 241 5.0 8.0 0.00 0.20 0.02 54 1009.6
20260903171546 59 260 7.0 10.0 0.00 0.20 0.02 50 1009.7
20260903170044 60 235 7.0 9.0 0.00 0.20 0.02 55 1009.5
20260903164541 59 248 5.0 7.0 0.00 0.20 0.02 55 1009.5
20260903163043 59 224 5.0 9.0 0.00 0.20 0.02 60 1009.5
20260903161549 59 197 5.0 9.0 0.00 0.20 0.02 67 1009.4
20260903160039 58 120 0.0 3.0 0.01 0.20 0.02 69 1009.5
20260903154533 57 98 2.0 7.0 0.01 0.20 0.02 73 1009.5
20260903153030 57 113 3.0 4.0 0.01 0.20 0.02 75 1009.7
20260903151528 56 108 4.0 7.0 0.01 0.20 0.02 77 1009.6
20260903150030 55 73 4.0 6.0 0.00 0.19 0.01 77 1009.7
20260903144527 54 77 4.0 7.0 0.00 0.19 0.01 78 1009.9
20260903143046 54 115 4.0 6.0 0.00 0.19 0.01 82 1009.7
20260903141520 0 0.0 0.0 0.00 0.19 0.01 1009.7
20260903140023 0 0.0 0.0 0.00 0.19 0.01 1009.7
20260903134512 0 0.0 0.0 0.00 0.19 0.01 1009.5
20260903133009 0 0.0 0.0 0.00 0.19 0.01 1009.5
20260903131503 0 0.0 0.0 0.00 0.19 0.01 1009.4
20260903130119 0 0.0 0.0 0.00 0.19 0.01 1009.2
20260903124556 0 0.0 0.0 0.00 0.19 0.01 1009.1
20260903123050 0 0.0 0.0 0.00 0.19 0.01 1008.9
20260903121544 0 0.0 0.0 0.00 0.19 0.01 1008.8
20260903120042 0 0.0 0.0 0.00 0.19 0.01 1008.6
20260903114537 0 0.0 0.0 0.00 0.19 0.01 1008.4
20260903113040 0 0.0 0.0 0.00 0.19 0.01 1008.5
20260903111527 0 0.0 0.0 0.00 0.19 0.01 1008.4
20260903110022 0 0.0 0.0 0.00 0.19 0.01 1008.2
20260903104519 0 0.0 0.0 0.00 0.19 0.01 1008.3
20260903103014 0 0.0 0.0 0.00 0.19 0.01 1008.4
20260903101511 0 0.0 0.0 0.00 0.19 0.01 1008.2
20260903100005 0 0.0 0.0 0.00 0.19 0.01 1008.5
20260903094609 0 0.0 0.0 0.00 0.19 0.01 1008.3
20260903093107 0 0.0 0.0 0.01 0.19 0.01 1008.4
20260903091554 54 108 0.0 0.0 0.01 0.19 0.01 83 1008.0
20260903090052 55 104 0.0 0.0 0.01 0.19 0.01 84 1007.9
20260903084550 55 103 0.0 0.0 0.01 0.19 0.01 80 1007.7
20260903083054 55 103 0.0 1.0 0.00 0.18 0.00 79 1007.6
20260903081549 55 89 3.0 5.0 0.00 0.18 0.00 83 1007.4
20260903080050 54 91 6.0 8.0 0.00 0.18 0.00 86 1007.3
20260903074543 55 107 1.0 2.0 0.00 0.18 0.00 80 1007.1
20260903073041 55 96 3.0 4.0 0.01 0.18 0.00 83 1007.1
20260903071541 55 85 0.0 3.0 0.06 0.18 0.00 82 1007.0
20260903070036 55 214 4.0 8.0 0.09 0.18 0.00 81 1007.1
20260903064540 54 78 2.0 6.0 0.11 0.18 0.18 87 1007.0
20260903063034 54 120 5.0 6.0 0.10 0.17 0.17 89 1007.3
20260903061532 54 228 3.0 11.0 0.06 0.12 0.12 86 1007.7
20260903060028 56 255 9.0 16.0 0.04 0.09 0.09 86 1007.6
20260903054525 57 274 15.0 19.0 0.04 0.07 0.07 84 1007.3
20260903053022 57 146 12.0 16.0 0.05 0.07 0.07 81 1006.6
20260903051518 57 142 8.0 11.0 0.05 0.06 0.06 81 1006.8
20260903050018 57 118 6.0 8.0 0.03 0.04 0.04 80 1007.0
20260903044520 58 109 4.0 9.0 0.02 0.03 0.03 79 1007.1
20260903043018 57 143 6.0 11.0 0.02 0.02 0.02 80 1007.1
20260903041516 57 161 6.0 9.0 0.01 0.01 0.01 80 1007.1
20260903040012 58 174 5.0 8.0 0.01 0.01 0.01 77 1007.1
20260903034512 59 224 0.0 4.0 0.01 0.01 0.01 75 1007.1
20260903033014 59 273 2.0 4.0 0.00 0.00 0.00 74 1007.0
20260903031510 60 204 1.0 5.0 0.00 0.00 0.00 72 1006.8
20260903030011 59 274 0.0 8.0 0.00 0.00 0.00 74 1006.6
20260903024508 60 242 7.0 14.0 0.00 0.00 0.00 70 1006.4
20260903023008 60 152 10.0 15.0 0.00 0.00 0.00 69 1006.2
20260903021509 60 138 11.0 17.0 0.00 0.00 0.00 71 1006.3
20260903020006 61 169 12.0 18.0 0.00 0.00 0.00 69 1006.2